User: anonymous   Login
Location: Barrio Las Umbrías
(40.4173°N, 4.8685°W)
Time: 07:40:46
(UTC+00:00)
Language:

Cosmos 1666 - Orbit

View from above orbital plane
View from above orbital plane
View from above satellite
View from above satellite

Ground track
Ground track

The orbit data is extracted from the following two-line orbital elements,

1 15889U 85058A   22339.81941172  .00006029  00000-0  25290-3 0  9997
2 15889  82.4844 169.1365 0014437 309.4537  50.5421 15.23203299 45141
Epoch (UTC): 05 December 2022 19:39:57
Eccentricity: 0.0014437
inclination: 82.4844°
perigee height: 486 km
apogee height: 506 km
right ascension of ascending node: 169.1365°
argument of perigee: 309.4537°
revolutions per day: 15.23203299
mean anomaly at epoch: 50.5421°
orbit number at epoch: 4514

The dashed part of the orbit path shows where the satellite is in the earth's shadow,  

DLR